(370974) = 2005 SE215

Discovered at Catalina on 2005-09-30 by CSS.

Orbit

Orbit type: Main Belt

Note: WebGL enabled browser required.

epoch2024-03-31.0
epoch JD2460400.5
perihelion date2021-07-23.15282
perihelion JD2459418.65282
argument of perihelion (°)55.53288
ascending node (°)263.64958
inclination (°)4.21063
eccentricity0.2500616
perihelion distance (AU)1.9082812
Tisserand w.r.t. Jupiter3.4
ΔV w.r.t. Earth (km/sec)8.8
semimajor axis (AU)2.5445839
mean anomaly (°)238.40897
mean daily motion (°/day)0.24281680
aphelion distance (AU)3.181
period (years)4.06
P-vector [x]0.75458335
P-vector [y]-0.62356743
P-vector [z]-0.20437127
Q-vector [x]0.65213414
Q-vector [y]0.67797215
Q-vector [z]0.33922680
absolute magnitude17.25
phase slope0.15
uncertainty0
referenceMPEC 2024-F50
observations used408
oppositions11
arc length (days)6745
first opposition used2005
last opposition used2024
residual rms (arc-secs)0.70
perturbers coarse indicatorM-v
perturbers precise indicator003Ek
first observation date used2005-09-30.0
last observation date used2024-03-19.0
computer nameMPCLINUX
JD of orbit computation2456612.710390
perihelion JD uncertainty (days)1.0108E-03
argument of perihelion uncertainty (°)5.1872E-04
ascending node uncertainty (°)4.7895E-04
inclination uncertainty (°)1.3413E-05
eccentricity uncertainty 9.9522E-07
perihelion distance uncertainty (AU)2.6249E-06
Minimum Orbit Intersection Distances (in AU)
for orbit epoch: 2460400.5, reference: E2024-G02
Mercury1.49193
Venus1.18748
Earth0.89878
Mars0.53683
Jupiter2.14093
Saturn5.98041
Uranus15.3108
Neptune27.0627

Observations

412 total observations over interval: 2005 09 30.37259 – 2024 03 19.251712
These data are available for download (format description).

Date (UT) J2000 RA J2000 Dec Magn Location Ref
2005 09 30.37259 01 39 43.56 +17 51 21.1 19.6 V 703 – Catalina Sky Survey MPS 144402
2005 09 30.38193 01 39 43.09 +17 51 19.3 19.8 V 703 – Catalina Sky Survey MPS 144402
2005 09 30.39126 01 39 42.55 +17 51 15.2 20.1 V 703 – Catalina Sky Survey MPS 144402
2005 09 30.40053 01 39 42.15 +17 51 13.5 19.2 V 703 – Catalina Sky Survey MPS 144402
2005 10 02.38253 01 38 05.69 +17 41 50.8 20.1 R 644 – Palomar Mountain/NEAT MPS 144402
2005 10 02.40576 01 38 04.50 +17 41 43.8 19.9 R 644 – Palomar Mountain/NEAT MPS 144402
2005 10 02.42897 01 38 03.29 +17 41 36.6 20.4 R 644 – Palomar Mountain/NEAT MPS 144402
2005 10 07.26922 01 33 53.17 +17 15 22.6 20.1 V G96 – Mt. Lemmon Survey MPS 144402
2005 10 07.27520 01 33 52.81 +17 15 20.5 19.6 V G96 – Mt. Lemmon Survey MPS 144402
2005 10 07.28112 01 33 52.52 +17 15 18.4 19.3 V G96 – Mt. Lemmon Survey MPS 144402
2005 10 07.28705 01 33 52.16 +17 15 16.4 19.5 V G96 – Mt. Lemmon Survey MPS 144402
2005 10 08.26762 01 32 59.65 +17 09 27.8 19.9   704 – Lincoln Laboratory ETS, New Mexico MPS 146213
2005 10 08.27844 01 32 59.01 +17 09 23.5 20.1   704 – Lincoln Laboratory ETS, New Mexico MPS 146213
2005 10 08.28927 01 32 58.32 +17 09 19.6 20.3   704 – Lincoln Laboratory ETS, New Mexico MPS 146213
2005 10 22.25202 01 20 22.84 +15 33 24.2 19.6 V 703 – Catalina Sky Survey MPS 146213
2005 10 22.26058 01 20 22.59 +15 33 21.2 18.9 V 703 – Catalina Sky Survey MPS 146213
2005 10 22.26909 01 20 21.94 +15 33 17.6 20.0 V 703 – Catalina Sky Survey MPS 146213
2005 10 22.27758 01 20 21.55 +15 33 14.1 19.9 V 703 – Catalina Sky Survey MPS 146213
2005 10 30.20707 01 14 02.67 +14 34 40.9 19.1   704 – Lincoln Laboratory ETS, New Mexico MPS 147598
2005 10 30.23115 01 14 01.50 +14 34 32.2 19.8   704 – Lincoln Laboratory ETS, New Mexico MPS 147598
2005 10 30.24313 01 14 01.02 +14 34 26.3 20.0   704 – Lincoln Laboratory ETS, New Mexico MPS 147598
2005 10 30.25504 01 14 00.39 +14 34 20.8 19.8   704 – Lincoln Laboratory ETS, New Mexico MPS 147598
2005 11 06.22610 01 09 33.58 +13 45 33.4 20.4   704 – Lincoln Laboratory ETS, New Mexico MPS 149646
2005 11 06.23840 01 09 33.10 +13 45 29.4 20.0   704 – Lincoln Laboratory ETS, New Mexico MPS 149646
2005 11 06.25084 01 09 32.57 +13 45 24.1 20.3   704 – Lincoln Laboratory ETS, New Mexico MPS 149646
2009 09 13.76136 01 03 50.15 +15 03 53.4 18.4 R D29 – Purple Mountain Observatory, XuYi Station MPS 295838
2009 09 13.77421 01 03 49.70 +15 03 51.3 19.2 R D29 – Purple Mountain Observatory, XuYi Station MPS 295838
2009 09 13.78668 01 03 49.20 +15 03 49.9 18.5 R D29 – Purple Mountain Observatory, XuYi Station MPS 295838
2009 09 13.79934 01 03 48.71 +15 03 47.1 19.2 R D29 – Purple Mountain Observatory, XuYi Station MPS 295838
2009 09 15.27809 01 02 54.24 +14 59 51.2 20.1 V 691 – Steward Observatory, Kitt Peak-Spacewatch MPS 295838
2009 09 15.28057 01 02 54.15 +14 59 51.1 20.1 V 691 – Steward Observatory, Kitt Peak-Spacewatch MPS 295838
2009 09 15.29576 01 02 53.53 +14 59 48.8 20.2 V 691 – Steward Observatory, Kitt Peak-Spacewatch MPS 295838
2009 09 15.29822 01 02 53.42 +14 59 47.8 20.2 V 691 – Steward Observatory, Kitt Peak-Spacewatch MPS 295838
2009 09 15.31344 01 02 52.79 +14 59 45.7 20.3 V 691 – Steward Observatory, Kitt Peak-Spacewatch MPS 295838
2009 09 15.31591 01 02 52.71 +14 59 45.1 20.2 V 691 – Steward Observatory, Kitt Peak-Spacewatch MPS 295838
2009 09 19.23375 01 00 12.38 +14 46 36.8   691 – Steward Observatory, Kitt Peak-Spacewatch MPS 295838
2009 09 19.25140 01 00 11.51 +14 46 32.3   691 – Steward Observatory, Kitt Peak-Spacewatch MPS 295838
2009 09 19.26904 01 00 10.71 +14 46 28.5   691 – Steward Observatory, Kitt Peak-Spacewatch MPS 295838
2009 09 23.23761 00 57 09.30 +14 29 22.8 19.7 V 691 – Steward Observatory, Kitt Peak-Spacewatch MPS 295838
2009 09 23.25529 00 57 08.43 +14 29 18.0 19.7 V 691 – Steward Observatory, Kitt Peak-Spacewatch MPS 295838
2009 09 23.27297 00 57 07.52 +14 29 13.2 19.6 V 691 – Steward Observatory, Kitt Peak-Spacewatch MPS 295838
2009 09 25.29145 00 55 29.47 +14 19 10.5 19.5   704 – Lincoln Laboratory ETS, New Mexico MPS 296929
2009 09 25.30370 00 55 28.86 +14 19 07.1 20.1   704 – Lincoln Laboratory ETS, New Mexico MPS 296929
2009 09 25.31570 00 55 28.21 +14 19 03.5 20.0   704 – Lincoln Laboratory ETS, New Mexico MPS 296929
2009 09 25.32771 00 55 27.59 +14 19 00.2 20.1   704 – Lincoln Laboratory ETS, New Mexico MPS 296929
2009 09 30.24221 00 51 18.90 +13 51 11.6 19.8 V G96 – Mt. Lemmon Survey MPS 296929
2009 09 30.24829 00 51 18.61 +13 51 09.2 19.8 V G96 – Mt. Lemmon Survey MPS 296929
2009 09 30.25442 00 51 18.25 +13 51 07.1 19.7 V G96 – Mt. Lemmon Survey MPS 296929
2009 09 30.26051 00 51 17.92 +13 51 05.2 19.9 V G96 – Mt. Lemmon Survey MPS 296929
2009 10 15.21713 00 38 44.43 +12 07 36.7 19.8   704 – Lincoln Laboratory ETS, New Mexico MPS 298321
2009 10 15.23013 00 38 43.85 +12 07 28.9 19.9   704 – Lincoln Laboratory ETS, New Mexico MPS 298321
2009 10 15.24313 00 38 43.19 +12 07 23.4 19.7   704 – Lincoln Laboratory ETS, New Mexico MPS 298321
2009 10 15.25616 00 38 42.46 +12 07 18.7 19.9   704 – Lincoln Laboratory ETS, New Mexico MPS 298321
2009 10 15.26916 00 38 41.84 +12 07 13.2 19.2   704 – Lincoln Laboratory ETS, New Mexico MPS 298321
2009 12 18.09960 00 43 20.24 +08 54 00.7 21.1 V G96 – Mt. Lemmon Survey MPS 307297
2009 12 18.10667 00 43 20.60 +08 54 01.4 21.7 V G96 – Mt. Lemmon Survey MPS 307297
2009 12 18.11361 00 43 20.92 +08 54 02.9 21.2 V G96 – Mt. Lemmon Survey MPS 307297
2009 12 18.12058 00 43 21.36 +08 54 02.9 21.3 V G96 – Mt. Lemmon Survey MPS 307297
2012 03 23.32029 12 24 26.53 -09 30 02.6 21.1 V G96 – Mt. Lemmon Survey MPS 420822
2012 03 23.32722 12 24 26.17 -09 30 00.2 20.8 V G96 – Mt. Lemmon Survey MPS 420822
2012 03 23.33420 12 24 25.77 -09 29 57.5 21.0 V G96 – Mt. Lemmon Survey MPS 420822
2012 03 23.34117 12 24 25.41 -09 29 55.5 21.2 V G96 – Mt. Lemmon Survey MPS 420822
2012 04 14.33237 12 05 16.096 -07 14 59.88 21.1 w F51 – Pan-STARRS 1, Haleakala MPS 420822
2012 04 14.34722 12 05 15.377 -07 14 54.31 21.2 w F51 – Pan-STARRS 1, Haleakala MPS 420822
2012 04 14.36208 12 05 14.652 -07 14 48.63 21.3 w F51 – Pan-STARRS 1, Haleakala MPS 420822
2012 04 14.37691 12 05 13.936 -07 14 43.24 21.2 w F51 – Pan-STARRS 1, Haleakala MPS 420822
2013 09 02.38082 00 17 54.57 +10 44 11.0 19.8 V 703 – Catalina Sky Survey MPS 474919
2013 09 02.38747 00 17 54.29 +10 44 11.3 20.0 V 703 – Catalina Sky Survey MPS 474919
2013 09 02.39425 00 17 54.05 +10 44 10.5 19.7 V 703 – Catalina Sky Survey MPS 474919
2013 09 02.40096 00 17 53.87 +10 44 10.6 19.4 V 703 – Catalina Sky Survey MPS 474919
2013 09 10.49128 00 12 37.065 +10 22 25.10 19.4 w F51 – Pan-STARRS 1, Haleakala MPS 476205
2013 09 10.50640 00 12 36.355 +10 22 21.74 19.5 w F51 – Pan-STARRS 1, Haleakala MPS 476205
2013 09 10.53595 00 12 34.962 +10 22 15.13 19.4 w F51 – Pan-STARRS 1, Haleakala MPS 476205
2013 09 15.33262 00 08 55.14 +10 01 50.1 19.4 V 703 – Catalina Sky Survey MPS 476205
2013 09 15.33823 00 08 54.79 +10 01 48.1 19.1 V 703 – Catalina Sky Survey MPS 476205
2013 09 15.34380 00 08 54.54 +10 01 47.7 19.7 V 703 – Catalina Sky Survey MPS 476205
2013 09 15.34944 00 08 54.34 +10 01 46.2 19.8 V 703 – Catalina Sky Survey MPS 476205
2013 09 30.54461 23 56 39.38 +08 31 21.6 19.5 R D29 – Purple Mountain Observatory, XuYi Station MPS 487125
2013 09 30.56051 23 56 38.60 +08 31 15.5 19.7 R D29 – Purple Mountain Observatory, XuYi Station MPS 487125
2013 09 30.57642 23 56 37.83 +08 31 09.3 19.5 R D29 – Purple Mountain Observatory, XuYi Station MPS 487125
2013 10 12.13056 23 48 56.98 +07 12 51.8 20.0 G G45 – Space Surveillance Telescope, Atom Site MPS 1610185
2013 10 12.29407 23 48 51.28 +07 11 47.6 20.4 G G45 – Space Surveillance Telescope, Atom Site MPS 1610185
2013 10 12.35316 23 48 49.24 +07 11 24.8 19.7 G G45 – Space Surveillance Telescope, Atom Site MPS 1610185
2013 10 12.41326 23 48 47.24 +07 11 01.1 19.7 G G45 – Space Surveillance Telescope, Atom Site MPS 1610185
2013 10 13.10865 23 48 26.15 +07 06 30.0 19.0 V G96 – Mt. Lemmon Survey MPS 482298
2013 10 13.11564 23 48 25.92 +07 06 27.3 19.2 V G96 – Mt. Lemmon Survey MPS 482298
2013 10 13.12266 23 48 25.69 +07 06 24.7 19.1 V G96 – Mt. Lemmon Survey MPS 482298
